Regional Weather Roundup
Issued by NWS Kansas City/Pleasant Hill, MO

Home | Current Version | Previous Version | Text Only | Print | Product List | Glossary On
Versions: 1 2 3 4 5 6 7 8 9 10 11 12 13 14 15 16 17 18 19 20 21 22 23 24 25 26 27 28 29 30 31 32 33 34 35 36 37 38 39 40 41 42 43 44 45 46 47 48 49 50
000
ASUS43 KEAX 060210
RWREAX

WEATHER ROUNDUP FOR EASTERN KANSAS AND NORTHWEST MISSOURI
NATIONAL WEATHER SERVICE KANSAS CITY/PLEASANT HILL MO
800 PM CST THU MAR 05 2015

KSZ040-057-103>105-MOZ028-029-037-043-060300-
...KANSAS CITY METROPOLITAN AREA...

CITY           SKY/WX    TMP DP  RH WIND       PRES   REMARKS
K.C. INTL      CLEAR     24   6  46 SE8       30.48S WCI  15
K.C. DOWNTOWN  CLEAR     28   8  43 S6        30.50S WCI  22
LEES SUMMIT    CLEAR     27  10  49 S6        30.50S WCI  20
OLATHE - IXD   CLEAR     26  13  57 SE7       30.48F WCI  18
OLATHE - OJC   CLEAR     25  14  63 SE5       30.48S WCI  19
LAWRENCE       CLEAR     22  12  65 SE7       30.48S WCI  13

$$

MOZ001>008-011>017-020>025-030>033-038>040-044>046-053-054-060300-
...NORTHERN AND CENTRAL MISSOURI...

CITY           SKY/WX    TMP DP  RH WIND       PRES   REMARKS
ST. JOSEPH     FAIR      22   8  55 SE7       30.48F WCI  13
MOSBY          CLEAR     28   7  40 SE5       30.51S WCI  23
WARRENSBURG    CLEAR     27   9  46 SE5       30.53F WCI  21
WHITEMAN AFB   CLEAR     24   9  52 SE5       30.52S WCI  19
CLINTON        CLEAR     28  16  59 S5        30.54F WCI  23
SEDALIA        CLEAR     24  12  60 SE3       30.54S
WARSAW         NOT AVBL
MARSHALL       CLEAR     28   7  40 CALM      30.55S
CHILLICOTHE      N/A     22   8  55 SE5       30.52F WCI  16
MOBERLY        CLEAR     23   7  50 CALM      30.55R
KIRKSVILLE     CLEAR     18   6  59 E6        30.52S WCI  10

$$

MOZ041-047>049-056>058-063>065-088>090-097-060300-
...EASTERN AND SOUTHERN MISSOURI...

CITY           SKY/WX    TMP DP  RH WIND       PRES   REMARKS
ST. LOUIS INTL CLEAR     20   4  50 NE7       30.59R WCI  11
SPIRIT OF STL  CLEAR     21   7  54 N3        30.59R
COLUMBIA       CLEAR     23  10  57 NE3       30.53F
JEFFERSON CITY CLEAR     23   9  55 CALM      30.56S
MEXICO         CLEAR     18  12  79 CALM      30.55S
HANNIBAL       CLEAR     14   1  57 E3        30.56S
ROLLA          CLEAR     22   9  57 CALM      30.51R
OSAGE BEACH    CLEAR     23   9  54 CALM      30.54R
SPRINGFIELD    CLEAR     23  12  62 CALM      30.51R
BRANSON        CLEAR     19  12  73 CALM      30.53R
NEVADA         CLEAR     25  16  68 E6        30.53S WCI  18
JOPLIN         FAIR      27  15  61 SE7       30.52R WCI  19
WEST PLAINS    CLEAR     18   6  59 CALM      30.52R

$$

IAZ060-094-KSZ022-034>040-054-083-096-NEZ052-066-093-060300-
...KANSAS...SOUTHEAST NEBRASKA AND IOWA...

CITY           SKY/WX    TMP DP  RH WIND       PRES   REMARKS
TOPEKA         CLEAR     28  13  53 SE8       30.47S WCI  20
MANHATTAN      PTCLDY    29  12  49 CALM      30.42S
EMPORIA        CLEAR     27  18  69 E9        30.44R WCI  18
CHANUTE        CLEAR     30  17  58 SE9       30.48S WCI  22
WICHITA        PTCLDY    32  17  54 S8        30.42R WCI  25
OMAHA          CLEAR     26   7  44 SE14      30.39F WCI  14
LINCOLN        CLEAR     27   9  46 SE9       30.35F WCI  18
FALLS CITY     CLEAR     24   5  44 S8        30.44S WCI  15
LAMONI         CLEAR     20   4  50 SE7       30.46S WCI  11
DES MOINES     CLEAR     20   2  45 SE6       30.47S WCI  12

$$




USA.gov is the U.S. government's official web portal to all federal, state and local government web resources and services.